[[{"header":{"parameterUnit":"m.s-1","parameterCategory":1,"la1":30.2991,"la2":30.254,"lo1":-89.0895,"lo2":-89.0444,"dx":0.0017,"dy":0.0017,"nx":28,"ny":28,"refTime":"2023-01-17T09:00:00:Z","depth":0,"parameterNumber":2,"parameterNumberName":"U-component_of_WINDS"},"data":[0,0,0,0,0,0,0,0,0,0,0,0,0,0,0,0,0,0,0,0,0,0,0,0,0,0,0,0,0,0,0,0,0,0,0,0,0,0,0,0,0,0,0,0,0,0,0,0,0,0,0,0,0,0,0,0,0,0,0.3661,0.3661,0,0.3669,0.3669,0.3669,0.3654,0.3653,0.3653,0.3652,0.3659,0.366,0.366,0,0,0,0,0,0,0,0,0,0,0,0,0,0.3631,0.3632,0.3661,0.3661,0.3661,0.3669,0.3669,0.3669,0.3654,0.3653,0.3653,0.3652,0.3659,0.366,0.3661,0,0,0,0,0,0,0,0,0,0,0,0,0,0.3642,0.3632,0.3661,0.3655,0.3654,0.3669,0.3669,0.3669,0.3654,0.3653,0.3652,0.3652,0.3659,0.366,0.3661,0.3682,0,0,0.3664,0.3664,0,0,0,0,0,0,0,0,0.3642,0.3643,0.3655,0.3655,0.3655,0.366,0.3661,0.3673,0.3654,0.3654,0.3652,0.3651,0.366,0.3661,0.3664,0.3682,0.3682,0.3664,0.3664,0.3665,0.3665,0,0,0,0,0,0,0,0.3641,0.3643,0.3664,0.3656,0.3655,0.3651,0.3651,0.3663,0.3661,0.3654,0.3653,0.3654,0.3659,0.3663,0.3664,0.3682,0.3664,0.3665,0.3665,0.3665,0.3717,0.3718,0,0,0,0,0,0,0.3641,0.3642,0.3664,0.3664,0.3646,0.3652,0.3653,0.3659,0.3661,0.366,0.3655,0.3653,0.3662,0.3663,0.3664,0.3688,0.3665,0.3666,0.3666,0.3717,0.3717,0.3718,0,0,0,0,0,0,0.3641,0.3643,0.3664,0.3653,0.3655,0.3653,0.366,0.3659,0.3663,0.3661,0.3661,0.3659,0.3661,0.3663,0.3677,0.3688,0.3666,0.3667,0.3716,0.3717,0.3718,0.3738,0,0,0,0,0,0,0.364,0.3643,0.3652,0.3653,0.3656,0.3677,0.3661,0.366,0.3665,0.3663,0.3665,0.3665,0.3661,0.3676,0.3678,0.3689,0.3668,0.3715,0.3716,0.3718,0.3736,0.3739,0.3742,0,0,0,0,0,0.3639,0.3657,0.3652,0.3655,0.3667,0.3678,0.3679,0.3675,0.3666,0.3674,0.3673,0.3665,0.3687,0.3678,0.368,0.3692,0.3714,0.3716,0.3717,0.3735,0.3739,0.3742,0,0,0,0,0,0,0.3656,0.3657,0.3652,0.3671,0.3674,0.3675,0.3686,0.3679,0.3685,0.3683,0.3677,0.3677,0.3693,0.3694,0.3683,0.3712,0.3699,0.3701,0.3711,0.3715,0.3718,0.3717,0.3668,0,0,0,0,0,0.3662,0.3672,0.3672,0.3689,0.3691,0.3688,0.3693,0.3689,0.3692,0.3693,0.3693,0.3697,0.3704,0.3709,0.3716,0.3736,0.3736,0.3745,0.3748,0.3751,0.3753,0.3763,0.3767,0.3724,0.3724,0.3724,0,0,0.3675,0.3676,0.3683,0.3692,0.3694,0.3704,0.3689,0.37,0.3707,0.3695,0.3709,0.3709,0.3712,0.3729,0.3736,0.373,0.3764,0.3753,0.3755,0.3756,0.3765,0.3769,0.3772,0.3725,0.3725,0.3725,0,0,0.3702,0.3705,0.3719,0.3721,0.3725,0.3723,0.3726,0.3728,0.3728,0.3742,0.3733,0.374,0.3754,0.3756,0.3759,0.3787,0.378,0.379,0.3806,0.3816,0.3819,0.3822,0.3832,0.3835,0.3792,0.3792,0.3792,0,0.3717,0.3732,0.3727,0.3738,0.3742,0.3732,0.3746,0.3748,0.3754,0.3757,0.3749,0.3766,0.3767,0.3784,0.3791,0.3794,0.3797,0.3789,0.3819,0.3822,0.3824,0.3834,0.3837,0.3793,0.3793,0.3793,0.3793,0,0.375,0.376,0.3771,0.3777,0.3782,0.3795,0.3791,0.3797,0.3792,0.3791,0.3805,0.3806,0.3813,0.3816,0.3812,0.3833,0.3828,0.382,0.3807,0.383,0.3838,0.3842,0.3795,0.3794,0.3794,0.3794,0,0,0.379,0.3792,0.3796,0.3799,0.3802,0.3809,0.3821,0.3828,0.3833,0.3837,0.3846,0.3857,0.385,0.3853,0.3849,0.3857,0.3879,0.3848,0.3847,0.3853,0.3901,0.3908,0.3912,0.3874,0.3874,0.3875,0.3901,0,0.3817,0.3838,0.3833,0.3853,0.3862,0.3852,0.3862,0.3865,0.3863,0.387,0.3869,0.3877,0.3866,0.3868,0.3876,0.3874,0.3888,0.3872,0.3882,0.3882,0.3882,0.3916,0.3923,0.3948,0.3904,0.3905,0.3905,0,0.3852,0.3858,0.3879,0.388,0.3883,0.3893,0.3898,0.3905,0.3908,0.3906,0.391,0.3904,0.3914,0.3901,0.3916,0.3905,0.3909,0.3909,0.3909,0.391,0.3895,0.3918,0.3956,0.396,0.3911,0.391,0.391,0,0.3878,0.3891,0.3905,0.3908,0.3909,0.3916,0.3917,0.3919,0.3923,0.3928,0.393,0.3936,0.3939,0.3944,0.3939,0.393,0.3954,0.3941,0.3953,0.3953,0.3959,0.3959,0.3998,0.3961,0.3961,0.3961,0.3961,0,0.3909,0.3923,0.3917,0.3926,0.394,0.3934,0.3948,0.3948,0.395,0.3958,0.3949,0.3957,0.395,0.3957,0.3953,0.3966,0.3967,0.3966,0.3965,0.3967,0.3967,0.3969,0.3967,0.3962,0.3962,0.3962,0.3961,0,0.3941,0.3938,0.3953,0.3953,0.3954,0.3964,0.3964,0.3972,0.397,0.398,0.3982,0.3979,0.3986,0.3982,0.399,0.3987,0.4004,0.4,0.4003,0.4002,0.4015,0.4014,0.4057,0.4062,0.4022,0.4022,0.4023,0,0.3961,0.3971,0.3973,0.3978,0.3979,0.3987,0.3992,0.3986,0.3991,0.3994,0.4001,0.4008,0.4013,0.4026,0.4024,0.403,0.4026,0.4041,0.4027,0.4029,0.4026,0.4026,0.4027,0.4044,0.4044,0.4045,0.4045,0,0.3997,0.3995,0.4002,0.4008,0.4013,0.4018,0.4021,0.4026,0.402,0.4026,0.4034,0.4038,0.4046,0.4052,0.4057,0.4058,0.405,0.4049,0.4053,0.4055,0.4056,0.4055,0.4011,0.4048,0.4048,0.4048,0.4048,0.4048,0.4024,0.4032,0.4034,0.4042,0.4044,0.4047,0.4055,0.4053,0.406,0.4066,0.4062,0.4071,0.4073,0.4079,0.408,0.4087,0.4081,0.4086,0.4087,0.4088,0.409,0.4055,0.4088,0.4088,0.4088,0.4088,0.4087,0,0.4059,0.406,0.4067,0.4072,0.4078,0.4071,0.4074,0.408,0.4088,0.409,0.4096,0.4104,0.4111,0.4109,0.4115,0.4121,0.4118,0.4123,0.4122,0.4122,0.4095,0.4091,0.4125,0.4125,0.4125,0.4125,0.4125,0.4125,0.4078,0.4091,0.4089,0.4104,0.4104,0.4113,0.4116,0.4119,0.4121,0.4131,0.4137,0.4136,0.4136,0.4142,0.4147,0.4147,0.4149,0.4155,0.4153,0.4128,0.4124,0.4121,0.4117,0.4156,0.4156,0.418,0.418,0.4181]},{"header":{"parameterUnit":"m.s-1","parameterCategory":1,"la1":30.2991,"la2":30.254,"lo1":-89.0895,"lo2":-89.0444,"dx":0.0017,"dy":0.0017,"nx":28,"ny":28,"refTime":"2023-01-17T09:00:00:Z","depth":0,"parameterNumber":3,"parameterNumberName":"V-component_of_WINDS"},"data":[0,0,0,0,0,0,0,0,0,0,0,0,0,0,0,0,0,0,0,0,0,0,0,0,0,0,0,0,0,0,0,0,0,0,0,0,0,0,0,0,0,0,0,0,0,0,0,0,0,0,0,0,0,0,0,0,0,0,4.5605,4.5604,0,4.5542,4.5541,4.5541,4.5458,4.5456,4.5455,4.5454,4.5387,4.5387,4.5386,0,0,0,0,0,0,0,0,0,0,0,0,0,4.5651,4.5651,4.5605,4.5604,4.5603,4.5542,4.5541,4.554,4.5458,4.5456,4.5455,4.5453,4.5387,4.5387,4.5386,0,0,0,0,0,0,0,0,0,0,0,0,0,4.5614,4.565,4.5605,4.5555,4.555,4.5542,4.5541,4.554,4.5458,4.5456,4.5454,4.5452,4.5388,4.5387,4.5386,4.5422,0,0,4.5384,4.5384,0,0,0,0,0,0,0,0,4.5616,4.5612,4.5563,4.5558,4.5552,4.5506,4.5533,4.5501,4.5459,4.5493,4.5454,4.5451,4.5428,4.5424,4.5417,4.5419,4.5416,4.5384,4.5383,4.5383,4.5383,0,0,0,0,0,0,0,4.5619,4.5614,4.558,4.5562,4.5556,4.5535,4.5527,4.5527,4.5473,4.549,4.5484,4.5478,4.5425,4.5418,4.5414,4.5415,4.5384,4.5383,4.5383,4.5382,4.5445,4.5447,0,0,0,0,0,0,4.5629,4.5617,4.5582,4.5578,4.558,4.5536,4.5527,4.5523,4.5472,4.5463,4.5479,4.5474,4.542,4.5415,4.5412,4.5452,4.5383,4.5382,4.5382,4.5443,4.5445,4.5448,0,0,0,0,0,0,4.563,4.5627,4.5584,4.5596,4.5589,4.5537,4.5533,4.5523,4.5515,4.5465,4.5454,4.5482,4.5418,4.5413,4.5421,4.5448,4.5382,4.5381,4.544,4.5444,4.5447,4.5532,0,0,0,0,0,0,4.5632,4.5628,4.5641,4.5597,4.5589,4.5595,4.5534,4.5523,4.5514,4.5507,4.5464,4.5455,4.5416,4.5422,4.542,4.5446,4.5381,4.5438,4.5442,4.5446,4.5526,4.5537,4.5547,0,0,0,0,0,4.5634,4.5667,4.5643,4.5639,4.5605,4.5597,4.5592,4.5547,4.5517,4.553,4.5498,4.5457,4.5445,4.5424,4.542,4.5447,4.5436,4.5441,4.5445,4.5521,4.5535,4.5547,0,0,0,0,0,0,4.5715,4.566,4.5632,4.5652,4.563,4.5583,4.5598,4.5563,4.5548,4.5541,4.5485,4.5476,4.5491,4.5469,4.5446,4.5479,4.5434,4.5439,4.5494,4.5506,4.5516,4.5522,4.538,0,0,0,0,0,4.5736,4.5735,4.5686,4.5708,4.5698,4.5651,4.5645,4.5613,4.5587,4.5577,4.5545,4.5521,4.5512,4.5508,4.5496,4.5522,4.5512,4.5538,4.5549,4.5558,4.5562,4.5575,4.5587,4.5463,4.5463,4.5463,0,0,4.5777,4.5747,4.575,4.5724,4.5703,4.5703,4.5643,4.5645,4.5645,4.5577,4.5583,4.5559,4.5528,4.5546,4.5552,4.5528,4.5594,4.5564,4.5571,4.5571,4.5581,4.5593,4.5604,4.5467,4.5466,4.5466,0,0,4.5854,4.5831,4.5847,4.5827,4.5797,4.5765,4.5769,4.5727,4.5709,4.5714,4.5664,4.5662,4.5647,4.5628,4.5616,4.5686,4.5648,4.5684,4.5739,4.5752,4.5762,4.577,4.5796,4.5806,4.5689,4.5689,4.5689,0,4.591,4.5908,4.586,4.5865,4.5856,4.5795,4.5812,4.5794,4.5762,4.5756,4.573,4.5711,4.5686,4.5699,4.5716,4.5708,4.5712,4.5689,4.5764,4.5772,4.5779,4.5804,4.5813,4.5693,4.5693,4.5692,4.5692,0,4.5979,4.5978,4.5995,4.5966,4.5958,4.5969,4.5922,4.5919,4.5887,4.5858,4.5865,4.5833,4.5815,4.5815,4.5783,4.5823,4.581,4.5775,4.5729,4.5797,4.5819,4.5827,4.57,4.5698,4.5697,4.5696,0,0,4.6105,4.605,4.6057,4.6044,4.6005,4.6004,4.6012,4.5995,4.5995,4.5974,4.598,4.5969,4.5937,4.5924,4.5889,4.5901,4.596,4.5864,4.5862,4.5884,4.6003,4.6031,4.6043,4.5934,4.5935,4.5936,4.6006,0,4.6176,4.6188,4.6144,4.6167,4.6167,4.6109,4.6116,4.6094,4.6067,4.6062,4.6031,4.6025,4.5982,4.5974,4.5983,4.5951,4.5983,4.5945,4.5939,4.5939,4.595,4.6054,4.6083,4.615,4.6014,4.6016,4.6017,0,4.6259,4.6244,4.6268,4.6229,4.6227,4.6235,4.6216,4.6212,4.6185,4.6165,4.6151,4.6111,4.6116,4.6071,4.6078,4.6053,4.6047,4.6031,4.6033,4.6032,4.5983,4.6057,4.6171,4.6182,4.603,4.6029,4.6028,0,4.6351,4.6337,4.6349,4.6339,4.6294,4.6301,4.6282,4.6253,4.6246,4.6229,4.6224,4.6208,4.62,4.6188,4.6145,4.6117,4.6157,4.6109,4.614,4.6142,4.6153,4.6153,4.6269,4.6147,4.6147,4.6147,4.6147,0,4.6435,4.6452,4.639,4.6398,4.6415,4.6365,4.6383,4.6358,4.6333,4.6335,4.6283,4.6286,4.6228,4.6225,4.6191,4.6202,4.6198,4.6181,4.6173,4.6187,4.6189,4.6184,4.6179,4.6149,4.6149,4.6148,4.6148,0,4.6541,4.65,4.651,4.6467,4.6456,4.6471,4.6434,4.6439,4.6409,4.6412,4.6409,4.6362,4.6355,4.631,4.6292,4.627,4.6294,4.6274,4.6304,4.6298,4.6333,4.6331,4.6451,4.6464,4.6333,4.6334,4.6335,0,4.6598,4.661,4.6569,4.6567,4.6551,4.6548,4.6541,4.6492,4.6486,4.6457,4.6466,4.6455,4.6444,4.6435,4.6398,4.6385,4.6366,4.6408,4.6363,4.6378,4.6368,4.6369,4.637,4.6419,4.642,4.6422,4.6423,0,4.6705,4.6684,4.6676,4.6662,4.6655,4.6641,4.6624,4.6625,4.657,4.6567,4.656,4.6551,4.6534,4.6524,4.6504,4.6484,4.6445,4.6437,4.6444,4.646,4.6477,4.647,4.6332,4.6435,4.6434,4.6433,4.6432,4.6432,4.6789,4.6797,4.677,4.6763,4.6745,4.673,4.6734,4.6704,4.6697,4.668,4.6651,4.6648,4.6621,4.6591,4.6574,4.6571,4.6548,4.6558,4.656,4.6564,4.6572,4.6477,4.6567,4.6566,4.6566,4.6565,4.6565,0,4.6894,4.6873,4.6868,4.6846,4.6841,4.6804,4.6784,4.6782,4.678,4.6758,4.6749,4.6741,4.6731,4.6694,4.668,4.6685,4.6667,4.6683,4.6683,4.6679,4.6593,4.6589,4.6698,4.6698,4.6698,4.6698,4.6698,4.6698,4.6948,4.6961,4.6937,4.694,4.6919,4.6917,4.6908,4.6894,4.6877,4.6871,4.6863,4.6839,4.6811,4.6795,4.6784,4.6773,4.6771,4.6794,4.6778,4.6698,4.6685,4.6673,4.6669,4.6794,4.6794,4.6865,4.6865,4.6866]}]]